Monroe, MI

9:17 PM EST on February 24, 2017 (GMT -0500)
Custer

Weather History for KTTF - April, 2014

Change the Weather History Date:

Wednesday, April 9, 2014

  Actual Average Record
Temperature  
Mean Temperature 46 °F -  
Max Temperature 55 °F 53 °F 82 °F (1931)
Min Temperature 37 °F 34 °F 17 °F (1997)
Degree Days  
Heating Degree Days 19    
Moisture  
Dew Point 30 °F    
Average Humidity 55    
Maximum Humidity 76    
Minimum Humidity 26    
Precipitation  
Precipitation 0.00 in - - ()
Sea Level Pressure  
Sea Level Pressure 29.92 in    
Wind  
Wind Speed 2 mph (WNW)    
Max Wind Speed 14 mph    
Max Gust Speed 20 mph    
Visibility 10 miles    
Events      
Averages and records for this station are not official NWS values.
T = Trace of Precipitation, MM = Missing Value Source: NWS Daily Summary

Daily Weather History Graph

Daily Weather History Graph

Search for Another Location

Airport or City:

Trip Planner

Search our weather history database for the weather conditions in past years. The results will help you decide how hot, cold, wet, or windy it might be!

Date:

Astronomy

Apr. 09, 2014 Rise Set
Actual Time 7:03 AM EDT 8:08 PM EDT
Civil Twilight 6:34 AM EDT 8:36 PM EDT
Nautical Twilight 6:00 AM EDT 9:11 PM EDT
Astronomical Twilight 5:24 AM EDT 9:46 PM EDT
Moon 2:50 PM EDT (4/9) 3:56 AM EDT (4/9)
Length of Visible Light 14h 02m
Length of Day
13h 05m
Waxing Gibbous, 71% of the Moon is Illuminated
Apr 9
Waxing Gibbous
Apr 15
Full
Apr 22
Last Quarter
Apr 29
New
May 6
First Quarter

Hourly Weather History & Observations

Time (EDT) Temp. Windchill Dew Point Humidity Pressure Visibility Wind Dir Wind Speed Gust Speed Precip Events Conditions
12:15 AM 48.2 °F - 35.6 °F 62% 29.79 in 10.0 mi Calm Calm - N/A   Mostly Cloudy
12:36 AM 48.2 °F - 35.6 °F 62% 29.80 in 10.0 mi Calm Calm - N/A   Scattered Clouds
12:56 AM 46.4 °F - 35.6 °F 66% 29.80 in 10.0 mi Calm Calm - N/A   Clear
1:16 AM 44.6 °F - 35.6 °F 71% 29.81 in 10.0 mi Calm Calm - N/A   Clear
1:36 AM 46.4 °F - 37.4 °F 71% 29.81 in 10.0 mi Calm Calm - N/A   Scattered Clouds
1:56 AM 44.6 °F - 37.4 °F 76% 29.82 in 10.0 mi Calm Calm - N/A   Scattered Clouds
2:16 AM 44.6 °F - 35.6 °F 71% 29.82 in 10.0 mi Calm Calm - N/A   Mostly Cloudy
2:36 AM 44.6 °F - 35.6 °F 71% 29.82 in 10.0 mi Calm Calm - N/A   Mostly Cloudy
2:56 AM 42.8 °F - 35.6 °F 76% 29.83 in 10.0 mi Calm Calm - N/A   Mostly Cloudy
3:16 AM 44.6 °F 43.1 °F 35.6 °F 71% 29.83 in 10.0 mi NNW 3.5 mph - N/A   Scattered Clouds
3:37 AM 44.6 °F - 35.6 °F 71% 29.84 in 10.0 mi Calm Calm - N/A   Scattered Clouds
3:57 AM 44.6 °F - 35.6 °F 71% 29.84 in 10.0 mi Calm Calm - N/A   Overcast
4:12 AM 42.8 °F - 33.8 °F 70% 29.85 in 10.0 mi Calm Calm - N/A   Mostly Cloudy
4:32 AM 42.8 °F - 33.8 °F 70% 29.85 in 10.0 mi Calm Calm - N/A   Mostly Cloudy
4:52 AM 42.8 °F - 33.8 °F 70% 29.85 in 10.0 mi Calm Calm - N/A   Scattered Clouds
5:12 AM 41.0 °F 36.4 °F 32.0 °F 70% 29.87 in 10.0 mi NNW 6.9 mph - N/A   Clear
5:32 AM 41.0 °F - 32.0 °F 70% 29.87 in 10.0 mi Calm Calm - N/A   Clear
5:52 AM 39.2 °F - 30.2 °F 70% 29.88 in 10.0 mi Calm Calm - N/A   Clear
6:12 AM 39.2 °F - 28.4 °F 65% 29.89 in 10.0 mi Calm Calm - N/A   Clear
6:32 AM 39.2 °F - 28.4 °F 65% 29.89 in 10.0 mi Calm Calm - N/A   Clear
6:53 AM 37.4 °F - 28.4 °F 70% 29.90 in 10.0 mi Calm Calm - N/A   Clear
7:13 AM 37.4 °F - 28.4 °F 70% 29.92 in 10.0 mi Calm Calm - N/A   Clear
7:33 AM 37.4 °F - 28.4 °F 70% 29.93 in 10.0 mi Calm Calm - N/A   Clear
7:53 AM 37.4 °F - 28.4 °F 70% 29.94 in 10.0 mi Calm Calm - N/A   Clear
8:13 AM 39.2 °F - 28.4 °F 65% 29.94 in 10.0 mi Calm Calm - N/A   Clear
8:33 AM 39.2 °F 34.2 °F 26.6 °F 61% 29.95 in 10.0 mi NNW 6.9 mph - N/A   Clear
8:53 AM 39.2 °F 32.5 °F 26.6 °F 61% 29.96 in 10.0 mi North 10.4 mph - N/A   Clear
9:13 AM 41.0 °F 34.7 °F 26.6 °F 57% 29.97 in 10.0 mi North 10.4 mph - N/A   Clear
9:33 AM 42.8 °F - 26.6 °F 53% 29.97 in 10.0 mi Calm Calm - N/A   Clear
9:53 AM 42.8 °F - 26.6 °F 53% 29.97 in 10.0 mi Calm Calm - N/A   Clear
10:34 AM 44.6 °F - 28.4 °F 53% 29.98 in 10.0 mi Calm Calm - N/A   Clear
10:54 AM 46.4 °F - 30.2 °F 53% 29.99 in 10.0 mi Calm Calm - N/A   Clear
11:14 AM 46.4 °F 42.4 °F 26.6 °F 46% 29.99 in 10.0 mi NNW 8.1 mph - N/A   Clear
11:34 AM 48.2 °F - 24.8 °F 40% 29.99 in 10.0 mi North 10.4 mph - N/A   Clear
11:54 AM 48.2 °F - 26.6 °F 43% 29.99 in 10.0 mi Calm Calm - N/A   Clear
12:14 PM 50.0 °F - 26.6 °F 40% 30.00 in 10.0 mi NW 13.8 mph - N/A   Clear
12:34 PM 50.0 °F - 26.6 °F 40% 30.00 in 10.0 mi Calm Calm - N/A   Clear
12:54 PM 51.8 °F - 26.6 °F 38% 30.00 in 10.0 mi NNW 8.1 mph - N/A   Clear
1:15 PM 51.8 °F - 26.6 °F 38% 29.99 in 10.0 mi Calm Calm - N/A   Clear
1:35 PM 53.6 °F - 26.6 °F 35% 29.99 in 10.0 mi West 9.2 mph - N/A   Clear
1:55 PM 53.6 °F - 23.0 °F 30% 29.99 in 10.0 mi West 5.8 mph - N/A   Clear
2:15 PM 53.6 °F - 21.2 °F 28% 29.99 in 10.0 mi Calm Calm - N/A   Clear
2:35 PM 55.4 °F - 21.2 °F 26% 29.98 in 10.0 mi West 8.1 mph 18.4 mph N/A   Clear
2:55 PM 53.6 °F - 21.2 °F 28% 29.98 in 10.0 mi NW 6.9 mph - N/A   Clear
3:15 PM 55.4 °F - 23.0 °F 29% 29.98 in 10.0 mi WNW 12.7 mph 16.1 mph N/A   Clear
3:35 PM 55.4 °F - 24.8 °F 31% 29.97 in 10.0 mi NW 9.2 mph 17.3 mph N/A   Clear
3:55 PM 55.4 °F - 21.2 °F 26% 29.96 in 10.0 mi Calm Calm - N/A   Clear
4:16 PM 55.4 °F - 24.8 °F 31% 29.95 in 10.0 mi West 13.8 mph 19.6 mph N/A   Clear
4:36 PM 55.4 °F - 23.0 °F 29% 29.95 in 10.0 mi SW 4.6 mph 9.2 mph N/A   Clear
4:56 PM 55.4 °F - 21.2 °F 26% 29.95 in 10.0 mi West 6.9 mph - N/A   Scattered Clouds
5:16 PM 53.6 °F - 30.2 °F 41% 29.95 in 10.0 mi SSE 8.1 mph - N/A   Scattered Clouds
5:32 PM 53.6 °F - 30.2 °F 41% 29.95 in 10.0 mi SSE 8.1 mph - N/A   Scattered Clouds
5:52 PM 51.8 °F - 30.2 °F 44% 29.95 in 10.0 mi SSE 9.2 mph - N/A   Scattered Clouds
6:12 PM 51.8 °F - 30.2 °F 44% 29.95 in 10.0 mi SE 9.2 mph - N/A   Mostly Cloudy
6:32 PM 51.8 °F - 30.2 °F 44% 29.95 in 10.0 mi SSE 9.2 mph - N/A   Scattered Clouds
6:52 PM 50.0 °F - 30.2 °F 47% 29.95 in 10.0 mi SSE 8.1 mph - N/A   Scattered Clouds
7:13 PM 48.2 °F - 30.2 °F 50% 29.94 in 10.0 mi Calm Calm - N/A   Scattered Clouds
7:33 PM 48.2 °F - 30.2 °F 50% 29.95 in 10.0 mi Calm Calm - N/A   Scattered Clouds
7:53 PM 48.2 °F - 33.8 °F 58% 29.95 in 10.0 mi Calm Calm - N/A   Clear
8:13 PM 46.4 °F - 32.0 °F 57% 29.94 in 10.0 mi Calm Calm - N/A   Clear
8:53 PM 44.6 °F - 33.8 °F 66% 29.94 in 10.0 mi Calm Calm - N/A   Clear
9:13 PM 44.6 °F - 35.6 °F 71% 29.94 in 10.0 mi Calm Calm - N/A   Clear
9:33 PM 42.8 °F - 33.8 °F 70% 29.94 in 10.0 mi Calm Calm - N/A   Clear
9:54 PM 42.8 °F - 35.6 °F 76% 29.94 in 10.0 mi Calm Calm - N/A   Clear
10:14 PM 44.6 °F - 32.0 °F 61% 29.93 in 10.0 mi Calm Calm - N/A   Clear
10:34 PM 44.6 °F 43.1 °F 32.0 °F 61% 29.93 in 10.0 mi South 3.5 mph - N/A   Clear
10:54 PM 46.4 °F - 33.8 °F 62% 29.92 in 10.0 mi Calm Calm - N/A   Clear
11:14 PM 48.2 °F - 33.8 °F 58% 29.92 in 10.0 mi Calm Calm - N/A   Clear
11:34 PM 46.4 °F - 33.8 °F 62% 29.92 in 10.0 mi Calm Calm - N/A   Clear
11:54 PM 46.4 °F - 33.8 °F 62% 29.92 in 10.0 mi Calm Calm - N/A   Clear